DLH78Y EDDM-LKPR

Flight info

Callsign DLH78Y
Flight time 0h 50m
Altitude 26000
Route AKINI1Q/08L AKINI Y104 MAMOR L132 AGNAV/N0475F250 DCT LOMKI
Aircraft B744/H-SDE3FGHIM1M2RWXY/LB1

Departure

Time 2026-04-30 18:32
Airport Munich Airport (EDDM)

Arrival

Time 2026-04-30 19:22
Airport Václav Havel Airport Prague (LKPR)
Time Latitude Longitude Altitude Speed Heading
2026-04-30 18:02 48.35491 11.79333 1480 ft 0 kts 257°
2026-04-30 18:15 48.35509 11.79450 1480 ft 0 kts 350°
2026-04-30 18:17 48.35511 11.79450 1480 ft 0 kts 354°
2026-04-30 18:18 48.35519 11.79451 1468 ft 1 kts
2026-04-30 18:18 48.35530 11.79459 1471 ft 2 kts 27°
2026-04-30 18:18 48.35575 11.79493 1468 ft 10 kts 21°
2026-04-30 18:18 48.35579 11.79495 1468 ft 10 kts 19°
2026-04-30 18:19 48.35634 11.79505 1474 ft 8 kts 355°
2026-04-30 18:19 48.35699 11.79482 1468 ft 11 kts 345°
2026-04-30 18:19 48.35782 11.79466 1475 ft 13 kts 354°
2026-04-30 18:19 48.35817 11.79461 1470 ft 0 kts 354°
2026-04-30 18:20 48.35827 11.79458 1470 ft 2 kts 347°
2026-04-30 18:20 48.35829 11.79457 1469 ft 0 kts 347°
2026-04-30 18:20 48.35836 11.79455 1465 ft 2 kts 350°
2026-04-30 18:21 48.35859 11.79448 1468 ft 5 kts 345°
2026-04-30 18:21 48.35878 11.79437 1466 ft 0 kts 332°
2026-04-30 18:21 48.35880 11.79435 1466 ft 1 kts 331°
2026-04-30 18:21 48.35887 11.79426 1465 ft 2 kts 318°
2026-04-30 18:22 48.35919 11.79364 1464 ft 10 kts 316°
2026-04-30 18:22 48.36002 11.79335 1466 ft 9 kts 353°
2026-04-30 18:22 48.36054 11.79319 1463 ft 4 kts 336°
2026-04-30 18:23 48.36074 11.79300 1463 ft 2 kts 321°
2026-04-30 18:23 48.36085 11.79274 1464 ft 6 kts 295°
2026-04-30 18:23 48.36086 11.79217 1468 ft 8 kts 264°
2026-04-30 18:23 48.36077 11.79102 1465 ft 13 kts 263°
2026-04-30 18:24 48.36049 11.78740 1467 ft 21 kts 264°
2026-04-30 18:24 48.36033 11.78506 1467 ft 24 kts 263°
2026-04-30 18:24 48.36013 11.78268 1476 ft 23 kts 263°
2026-04-30 18:25 48.35994 11.78013 1470 ft 25 kts 264°
2026-04-30 18:25 48.35958 11.77539 1473 ft 25 kts 263°
2026-04-30 18:25 48.35935 11.77268 1472 ft 28 kts 263°
2026-04-30 18:26 48.35890 11.76669 1471 ft 29 kts 264°
2026-04-30 18:26 48.35877 11.76414 1470 ft 12 kts 276°
2026-04-30 18:26 48.35884 11.76399 1474 ft 2 kts 320°
2026-04-30 18:27 48.35915 11.76380 1473 ft 4 kts 346°
2026-04-30 18:27 48.35973 11.76377 1481 ft 11 kts
2026-04-30 18:28 48.36028 11.76456 1469 ft 5 kts 59°
2026-04-30 18:28 48.36041 11.76489 1480 ft 0 kts 59°
2026-04-30 18:28 48.36055 11.76525 1471 ft 8 kts 59°
2026-04-30 18:29 48.36094 11.76600 1472 ft 10 kts 44°
2026-04-30 18:29 48.36281 11.76901 1468 ft 0 kts 70°
2026-04-30 18:30 48.36285 11.76922 1471 ft 3 kts 75°
2026-04-30 18:30 48.36287 11.76933 1472 ft 2 kts 79°
2026-04-30 18:31 48.36301 11.77085 1484 ft 38 kts 84°
2026-04-30 18:31 48.36494 11.79533 1732 ft 166 kts 82°
2026-04-30 18:32 48.36757 11.82956 3078 ft 171 kts 84°
2026-04-30 18:32 48.36894 11.84776 3606 ft 179 kts 83°
2026-04-30 18:32 48.38167 11.88112 4603 ft 199 kts 41°
2026-04-30 18:33 48.39353 11.89264 5106 ft 205 kts 36°
2026-04-30 18:33 48.41746 11.91481 6348 ft 203 kts 36°
2026-04-30 18:33 48.42726 11.92954 6923 ft 198 kts 61°
2026-04-30 18:34 48.43496 11.94716 7412 ft 205 kts 58°
2026-04-30 18:34 48.45151 11.98435 8275 ft 221 kts 58°
2026-04-30 18:34 48.46099 12.00252 8716 ft 226 kts 46°
2026-04-30 18:35 48.47321 12.01798 9212 ft 232 kts 35°
2026-04-30 18:35 48.48751 12.02939 9751 ft 233 kts 24°
2026-04-30 18:35 48.50313 12.03606 10336 ft 233 kts 12°
2026-04-30 18:36 48.53540 12.03764 11395 ft 229 kts
2026-04-30 18:36 48.55124 12.03771 11928 ft 226 kts
2026-04-30 18:36 48.58221 12.03781 12986 ft 218 kts
2026-04-30 18:37 48.59710 12.03785 13533 ft 217 kts
2026-04-30 18:37 48.61256 12.03794 14088 ft 227 kts
2026-04-30 18:37 48.62820 12.04122 14612 ft 227 kts 27°
2026-04-30 18:37 48.64285 12.05097 15163 ft 233 kts 27°
2026-04-30 18:38 48.65782 12.06120 15693 ft 238 kts 28°
2026-04-30 18:38 48.67302 12.07165 16234 ft 242 kts 27°
2026-04-30 18:38 48.68847 12.08222 16766 ft 245 kts 27°
2026-04-30 18:38 48.70403 12.09285 17310 ft 247 kts 27°
2026-04-30 18:39 48.71972 12.10359 17851 ft 247 kts 27°
2026-04-30 18:39 48.73538 12.11432 18395 ft 247 kts 27°
2026-04-30 18:39 48.75076 12.12489 18889 ft 245 kts 29°
2026-04-30 18:39 48.76594 12.13625 19351 ft 242 kts 28°
2026-04-30 18:40 48.78114 12.14683 19830 ft 238 kts 27°
2026-04-30 18:40 48.79602 12.15735 20282 ft 234 kts 28°
2026-04-30 18:40 48.81057 12.16786 20748 ft 229 kts 28°
2026-04-30 18:40 48.82475 12.17812 21204 ft 223 kts 28°
2026-04-30 18:41 48.83853 12.18805 21664 ft 216 kts 28°
2026-04-30 18:41 48.85182 12.19763 22104 ft 207 kts 28°
2026-04-30 18:41 48.86478 12.20698 22285 ft 211 kts 28°
2026-04-30 18:41 48.87847 12.21692 22276 ft 222 kts 28°
2026-04-30 18:42 48.89288 12.22732 22259 ft 234 kts 27°
2026-04-30 18:42 48.92385 12.24893 22267 ft 255 kts 27°
2026-04-30 18:42 48.94014 12.26038 22259 ft 260 kts 27°
2026-04-30 18:45 49.10492 12.37680 22254 ft 262 kts 27°
2026-04-30 18:45 49.12142 12.38850 22254 ft 261 kts 27°
2026-04-30 18:45 49.13790 12.40020 22261 ft 262 kts 27°
2026-04-30 18:46 49.15450 12.41200 22007 ft 269 kts 27°
2026-04-30 18:46 49.17195 12.42445 21463 ft 291 kts 27°
2026-04-30 18:46 49.19071 12.43779 20972 ft 302 kts 27°
2026-04-30 18:46 49.20985 12.45137 20458 ft 305 kts 27°
2026-04-30 18:47 49.22917 12.46513 19948 ft 306 kts 27°
2026-04-30 18:47 49.24860 12.47900 19446 ft 309 kts 27°
2026-04-30 18:47 49.26808 12.49292 18946 ft 311 kts 27°
2026-04-30 18:47 49.28773 12.50696 18412 ft 313 kts 27°
2026-04-30 18:48 49.30752 12.52110 17849 ft 314 kts 27°
2026-04-30 18:48 49.32743 12.53535 17299 ft 316 kts 26°
2026-04-30 18:48 49.34857 12.54547 16823 ft 322 kts 15°
2026-04-30 18:48 49.37067 12.55242 16335 ft 324 kts 15°
2026-04-30 18:49 49.39278 12.55926 15852 ft 325 kts 14°
2026-04-30 18:49 49.41513 12.56626 15393 ft 328 kts 15°
2026-04-30 18:49 49.43727 12.57326 14957 ft 329 kts 14°
2026-04-30 18:49 49.45985 12.58039 14516 ft 331 kts 14°
2026-04-30 18:50 49.48242 12.58749 14059 ft 325 kts 14°
2026-04-30 18:50 49.50363 12.59410 13547 ft 299 kts 14°
2026-04-30 18:50 49.52301 12.60019 13406 ft 271 kts 15°
2026-04-30 18:50 49.54172 12.60619 13422 ft 276 kts 15°
2026-04-30 18:51 49.55984 12.61332 13420 ft 261 kts 27°
2026-04-30 18:51 49.57488 12.62812 13424 ft 256 kts 45°
2026-04-30 18:51 49.58669 12.64846 13429 ft 254 kts 50°
2026-04-30 18:51 49.59812 12.66924 13420 ft 254 kts 50°
2026-04-30 18:52 49.60950 12.69001 13427 ft 254 kts 50°
2026-04-30 18:52 49.62092 12.71080 13427 ft 253 kts 50°
2026-04-30 18:52 49.63214 12.73121 13424 ft 253 kts 50°
2026-04-30 18:52 49.64353 12.75197 13421 ft 253 kts 50°
2026-04-30 18:53 49.65490 12.77272 13422 ft 253 kts 50°
2026-04-30 18:53 49.66627 12.79348 13420 ft 253 kts 50°
2026-04-30 18:53 49.67762 12.81421 13416 ft 253 kts 50°
2026-04-30 18:53 49.68898 12.83498 13416 ft 252 kts 50°
2026-04-30 18:54 49.70033 12.85575 13415 ft 253 kts 50°
2026-04-30 18:54 49.71163 12.87646 13417 ft 253 kts 50°
2026-04-30 18:54 49.72285 12.89702 13412 ft 252 kts 50°
2026-04-30 18:54 49.73416 12.91776 13414 ft 252 kts 50°
2026-04-30 18:55 49.74550 12.93857 13411 ft 253 kts 50°
2026-04-30 18:55 49.76814 12.98019 13409 ft 252 kts 50°
2026-04-30 18:55 49.77944 13.00097 13408 ft 252 kts 50°
2026-04-30 18:56 49.80201 13.04255 13405 ft 252 kts 50°
2026-04-30 18:56 49.81315 13.06311 13408 ft 252 kts 50°
2026-04-30 18:56 49.82446 13.08397 13405 ft 252 kts 50°
2026-04-30 18:57 49.84699 13.12561 13411 ft 252 kts 50°
2026-04-30 18:57 49.85827 13.14649 13410 ft 252 kts 50°
2026-04-30 18:57 49.86939 13.16707 13411 ft 252 kts 50°
2026-04-30 18:58 49.89190 13.20882 13411 ft 252 kts 50°
2026-04-30 18:58 49.90248 13.23039 13416 ft 252 kts 62°
2026-04-30 18:58 49.90676 13.24723 13433 ft 255 kts 73°
2026-04-30 18:59 49.90729 13.30276 13425 ft 260 kts 90°
2026-04-30 19:00 49.90414 13.38683 13425 ft 260 kts 89°
2026-04-30 19:00 49.90313 13.41485 13429 ft 260 kts 89°
2026-04-30 19:00 49.90215 13.47070 13427 ft 256 kts 75°
2026-04-30 19:01 49.91842 13.51809 13428 ft 253 kts 52°
2026-04-30 19:01 49.92924 13.53982 13119 ft 253 kts 52°
2026-04-30 19:02 49.95016 13.58189 12307 ft 241 kts 52°
2026-04-30 19:02 49.97020 13.62248 11514 ft 235 kts 52°
2026-04-30 19:03 49.99001 13.66261 10722 ft 236 kts 53°
2026-04-30 19:03 50.00994 13.70306 9835 ft 236 kts 53°
2026-04-30 19:04 50.02992 13.74367 8987 ft 237 kts 53°
2026-04-30 19:04 50.04982 13.78419 8158 ft 238 kts 53°
2026-04-30 19:05 50.06993 13.82518 7436 ft 238 kts 53°
2026-04-30 19:05 50.08117 13.87294 7430 ft 231 kts 79°
2026-04-30 19:06 50.08621 13.91877 7261 ft 210 kts 79°
2026-04-30 19:06 50.08879 13.94128 6845 ft 211 kts 79°
2026-04-30 19:06 50.09391 13.98630 5976 ft 211 kts 79°
2026-04-30 19:07 50.09900 14.03134 5159 ft 211 kts 79°
2026-04-30 19:07 50.10151 14.05356 4748 ft 211 kts 78°
2026-04-30 19:08 50.10643 14.09737 4418 ft 203 kts 78°
2026-04-30 19:08 50.11126 14.14035 4422 ft 201 kts 78°
2026-04-30 19:08 50.11367 14.16192 4420 ft 202 kts 78°
2026-04-30 19:09 50.11844 14.20468 4421 ft 201 kts 79°
2026-04-30 19:09 50.12084 14.22622 4425 ft 201 kts 78°
2026-04-30 19:09 50.12322 14.24766 4418 ft 202 kts 79°
2026-04-30 19:10 50.12799 14.29074 4420 ft 202 kts 79°
2026-04-30 19:10 50.13273 14.33366 4422 ft 201 kts 79°
2026-04-30 19:11 50.13511 14.35521 4422 ft 201 kts 79°
2026-04-30 19:11 50.13667 14.39855 4428 ft 204 kts 110°
2026-04-30 19:11 50.12918 14.41765 4441 ft 209 kts 124°
2026-04-30 19:12 50.12025 14.43563 4441 ft 209 kts 125°
2026-04-30 19:12 50.11136 14.45350 4440 ft 209 kts 124°
2026-04-30 19:12 50.10269 14.47135 4433 ft 209 kts 124°
2026-04-30 19:13 50.08514 14.50752 4437 ft 209 kts 124°
2026-04-30 19:13 50.06752 14.54370 4434 ft 209 kts 124°
2026-04-30 19:13 50.05872 14.56174 4436 ft 209 kts 124°
2026-04-30 19:14 50.04992 14.57981 4436 ft 209 kts 124°
2026-04-30 19:14 50.04110 14.59786 4437 ft 209 kts 124°
2026-04-30 19:14 50.03230 14.61588 4436 ft 209 kts 124°
2026-04-30 19:14 50.02127 14.63063 4426 ft 215 kts 156°
2026-04-30 19:15 50.00637 14.63297 4439 ft 220 kts 192°
2026-04-30 19:15 49.97963 14.60970 4435 ft 222 kts 214°
2026-04-30 19:15 49.96701 14.59591 4429 ft 222 kts 215°
2026-04-30 19:16 49.95457 14.58222 4423 ft 222 kts 215°
2026-04-30 19:16 49.94287 14.56673 4409 ft 222 kts 238°
2026-04-30 19:16 49.94187 14.52399 4431 ft 195 kts 301°
2026-04-30 19:17 49.94896 14.50631 4437 ft 191 kts 309°
2026-04-30 19:17 49.96882 14.48010 4415 ft 186 kts 331°
2026-04-30 19:17 49.97976 14.46967 4539 ft 185 kts 332°
2026-04-30 19:18 49.99826 14.45127 4578 ft 189 kts 328°
2026-04-30 19:18 50.01197 14.43588 4352 ft 176 kts 325°
2026-04-30 19:18 50.02124 14.42287 3702 ft 181 kts 318°
2026-04-30 19:19 50.02940 14.40842 3327 ft 174 kts 311°
2026-04-30 19:19 50.03652 14.39364 2984 ft 168 kts 309°
2026-04-30 19:19 50.04998 14.36439 2346 ft 168 kts 309°
2026-04-30 19:20 50.05705 14.34960 2199 ft 170 kts 311°
2026-04-30 19:20 50.06425 14.33467 2106 ft 169 kts 310°
2026-04-30 19:20 50.07867 14.30582 1708 ft 167 kts 310°
2026-04-30 19:21 50.08580 14.29146 1413 ft 165 kts 309°
2026-04-30 19:21 50.09837 14.26541 1211 ft 99 kts 307°
2026-04-30 19:22 50.10345 14.25689 1190 ft 1 kts 345°
2026-04-30 19:22 50.10449 14.25664 1189 ft 0 kts
2026-04-30 19:25 50.10472 14.25674 1189 ft 4 kts 17°
2026-04-30 19:26 50.10556 14.25740 1188 ft 11 kts 34°
2026-04-30 19:26 50.10714 14.25905 1208 ft 0 kts 34°
2026-04-30 19:26 50.10737 14.25929 1180 ft 9 kts 34°
2026-04-30 19:27 50.10892 14.26106 1172 ft 0 kts 113°
2026-04-30 19:27 50.10860 14.26189 1173 ft 11 kts 123°
2026-04-30 19:28 50.10819 14.26300 1174 ft 12 kts 119°
2026-04-30 19:28 50.10778 14.26400 1173 ft 0 kts 124°
2026-04-30 19:29 50.10738 14.26426 1185 ft 2 kts 123°
2026-04-30 19:29 50.10729 14.26452 1185 ft 2 kts 113°
2026-04-30 19:30 50.10730 14.26531 1186 ft 2 kts 61°
2026-04-30 19:30 50.10776 14.26575 1185 ft 4 kts 30°
2026-04-30 19:31 50.10784 14.26582 1185 ft 0 kts 30°